Location ID,Date/time,Temperature ( F ),Temperature ( C )
HW3,13/Jul/2000 00:59:59,85.1,29.5
HW3,13/Jul/2000 01:59:59,84.2,29.0
HW3,13/Jul/2000 02:59:59,84.2,29.0
HW3,13/Jul/2000 03:59:59,84.2,29.0
HW3,13/Jul/2000 04:59:59,84.2,29.0
HW3,13/Jul/2000 05:59:59,84.2,29.0
HW3,13/Jul/2000 06:59:59,84.2,29.0
HW3,13/Jul/2000 07:59:59,84.2,29.0
HW3,13/Jul/2000 08:59:59,84.2,29.0
HW3,13/Jul/2000 09:59:59,84.2,29.0
HW3,13/Jul/2000 10:59:59,85.1,29.5
HW3,13/Jul/2000 11:59:59,85.1,29.5
HW3,13/Jul/2000 12:59:59,84.2,29.0
HW3,13/Jul/2000 13:59:59,84.2,29.0
HW3,13/Jul/2000 14:59:59,84.2,29.0
HW3,13/Jul/2000 15:59:59,85.1,29.5
HW3,13/Jul/2000 16:59:59,84.2,29.0
HW3,13/Jul/2000 17:59:59,84.2,29.0
HW3,13/Jul/2000 18:59:59,84.2,29.0
HW3,13/Jul/2000 19:59:59,84.2,29.0
HW3,13/Jul/2000 20:59:59,84.2,29.0
HW3,13/Jul/2000 21:59:59,84.2,29.0
HW3,13/Jul/2000 22:59:59,84.2,29.0
HW3,13/Jul/2000 23:59:59,84.2,29.0
HW3,14/Jul/2000 00:59:59,84.2,29.0
HW3,14/Jul/2000 01:59:59,84.2,29.0
HW3,14/Jul/2000 02:59:59,84.2,29.0
HW3,14/Jul/2000 03:59:59,84.2,29.0
HW3,14/Jul/2000 04:59:59,84.2,29.0
HW3,14/Jul/2000 05:59:59,84.2,29.0
HW3,14/Jul/2000 06:59:59,84.2,29.0
HW3,14/Jul/2000 07:59:59,84.2,29.0
HW3,14/Jul/2000 08:59:59,84.2,29.0
HW3,14/Jul/2000 09:59:59,84.2,29.0
HW3,14/Jul/2000 10:59:59,84.2,29.0
HW3,14/Jul/2000 11:59:59,83.3,28.5
HW3,14/Jul/2000 12:59:59,83.3,28.5
HW3,14/Jul/2000 13:59:59,84.2,29.0
HW3,14/Jul/2000 14:59:59,84.2,29.0
HW3,14/Jul/2000 15:59:59,84.2,29.0
HW3,14/Jul/2000 16:59:59,84.2,29.0
HW3,14/Jul/2000 17:59:59,84.2,29.0
HW3,14/Jul/2000 18:59:59,84.2,29.0
HW3,14/Jul/2000 19:59:59,84.2,29.0
HW3,14/Jul/2000 20:59:59,83.3,28.5
HW3,14/Jul/2000 21:59:59,83.3,28.5
HW3,14/Jul/2000 22:59:59,81.5,27.5
HW3,14/Jul/2000 23:59:59,81.5,27.5
HW3,15/Jul/2000 00:59:59,82.4,28.0
HW3,15/Jul/2000 01:59:59,82.4,28.0
HW3,15/Jul/2000 02:59:59,82.4,28.0
HW3,15/Jul/2000 03:59:59,82.4,28.0
HW3,15/Jul/2000 04:59:59,82.4,28.0
HW3,15/Jul/2000 05:59:59,83.3,28.5
HW3,15/Jul/2000 06:59:59,83.3,28.5
HW3,15/Jul/2000 07:59:59,83.3,28.5
HW3,15/Jul/2000 08:59:59,82.4,28.0
HW3,15/Jul/2000 09:59:59,82.4,28.0
HW3,15/Jul/2000 10:59:59,82.4,28.0
HW3,15/Jul/2000 11:59:59,81.5,27.5
HW3,15/Jul/2000 12:59:59,82.4,28.0
HW3,15/Jul/2000 13:59:59,82.4,28.0
HW3,15/Jul/2000 14:59:59,82.4,28.0
HW3,15/Jul/2000 15:59:59,82.4,28.0
HW3,15/Jul/2000 16:59:59,83.3,28.5
HW3,15/Jul/2000 17:59:59,83.3,28.5
HW3,15/Jul/2000 18:59:59,82.4,28.0
HW3,15/Jul/2000 19:59:59,83.3,28.5
HW3,15/Jul/2000 20:59:59,83.3,28.5
HW3,15/Jul/2000 21:59:59,83.3,28.5
HW3,15/Jul/2000 22:59:59,82.4,28.0
HW3,15/Jul/2000 23:59:59,82.4,28.0
HW3,16/Jul/2000 00:59:59,82.4,28.0
HW3,16/Jul/2000 01:59:59,82.4,28.0
HW3,16/Jul/2000 02:59:59,83.3,28.5
HW3,16/Jul/2000 03:59:59,83.3,28.5
HW3,16/Jul/2000 04:59:59,83.3,28.5
HW3,16/Jul/2000 05:59:59,83.3,28.5
HW3,16/Jul/2000 06:59:59,83.3,28.5
HW3,16/Jul/2000 07:59:59,82.4,28.0
HW3,16/Jul/2000 08:59:59,80.6,27.0
HW3,16/Jul/2000 09:59:59,82.4,28.0
HW3,16/Jul/2000 10:59:59,80.6,27.0
HW3,16/Jul/2000 11:59:59,80.6,27.0
HW3,16/Jul/2000 12:59:59,81.5,27.5
HW3,16/Jul/2000 13:59:59,81.5,27.5
HW3,16/Jul/2000 14:59:59,81.5,27.5
HW3,16/Jul/2000 15:59:59,81.5,27.5
HW3,16/Jul/2000 16:59:59,81.5,27.5
HW3,16/Jul/2000 17:59:59,81.5,27.5
HW3,16/Jul/2000 18:59:59,81.5,27.5
HW3,16/Jul/2000 19:59:59,82.4,28.0
HW3,16/Jul/2000 20:59:59,80.6,27.0
HW3,16/Jul/2000 21:59:59,80.6,27.0
HW3,16/Jul/2000 22:59:59,79.7,26.5
HW3,16/Jul/2000 23:59:59,79.7,26.5
HW3,17/Jul/2000 00:59:59,79.7,26.5
HW3,17/Jul/2000 01:59:59,80.6,27.0
HW3,17/Jul/2000 02:59:59,80.6,27.0
HW3,17/Jul/2000 03:59:59,80.6,27.0
HW3,17/Jul/2000 04:59:59,80.6,27.0
HW3,17/Jul/2000 05:59:59,80.6,27.0
HW3,17/Jul/2000 06:59:59,79.7,26.5
HW3,17/Jul/2000 07:59:59,79.7,26.5
HW3,17/Jul/2000 08:59:59,80.6,27.0
HW3,17/Jul/2000 09:59:59,80.6,27.0
HW3,17/Jul/2000 10:59:59,79.7,26.5
HW3,17/Jul/2000 11:59:59,80.6,27.0
HW3,17/Jul/2000 12:59:59,80.6,27.0
HW3,17/Jul/2000 13:59:59,80.6,27.0
HW3,17/Jul/2000 14:59:59,80.6,27.0
HW3,17/Jul/2000 15:59:59,80.6,27.0
HW3,17/Jul/2000 16:59:59,80.6,27.0
HW3,17/Jul/2000 17:59:59,80.6,27.0
HW3,17/Jul/2000 18:59:59,80.6,27.0
HW3,17/Jul/2000 19:59:59,80.6,27.0
HW3,17/Jul/2000 20:59:59,80.6,27.0
HW3,17/Jul/2000 21:59:59,80.6,27.0
HW3,17/Jul/2000 22:59:59,80.6,27.0
HW3,17/Jul/2000 23:59:59,80.6,27.0
HW3,18/Jul/2000 00:59:59,80.6,27.0
HW3,18/Jul/2000 01:59:59,80.6,27.0
HW3,18/Jul/2000 02:59:59,80.6,27.0
HW3,18/Jul/2000 03:59:59,80.6,27.0
HW3,18/Jul/2000 04:59:59,80.6,27.0
HW3,18/Jul/2000 05:59:59,80.6,27.0
HW3,18/Jul/2000 06:59:59,80.6,27.0
HW3,18/Jul/2000 07:59:59,80.6,27.0
HW3,18/Jul/2000 08:59:59,80.6,27.0
HW3,18/Jul/2000 09:59:59,80.6,27.0
HW3,18/Jul/2000 10:59:59,81.5,27.5
HW3,18/Jul/2000 11:59:59,80.6,27.0
HW3,18/Jul/2000 12:59:59,81.5,27.5
HW3,18/Jul/2000 13:59:59,81.5,27.5
HW3,18/Jul/2000 14:59:59,81.5,27.5
HW3,18/Jul/2000 15:59:59,81.5,27.5
HW3,18/Jul/2000 16:59:59,81.5,27.5
HW3,18/Jul/2000 17:59:59,81.5,27.5
HW3,18/Jul/2000 18:59:59,81.5,27.5
HW3,18/Jul/2000 19:59:59,81.5,27.5
HW3,18/Jul/2000 20:59:59,80.6,27.0
HW3,18/Jul/2000 21:59:59,80.6,27.0
HW3,18/Jul/2000 22:59:59,80.6,27.0
HW3,18/Jul/2000 23:59:59,80.6,27.0
HW3,19/Jul/2000 00:59:59,80.6,27.0
HW3,19/Jul/2000 01:59:59,80.6,27.0
HW3,19/Jul/2000 02:59:59,80.6,27.0
HW3,19/Jul/2000 03:59:59,80.6,27.0
HW3,19/Jul/2000 04:59:59,80.6,27.0
HW3,19/Jul/2000 05:59:59,80.6,27.0
HW3,19/Jul/2000 06:59:59,80.6,27.0
HW3,19/Jul/2000 07:59:59,79.7,26.5
HW3,19/Jul/2000 08:59:59,79.7,26.5
HW3,19/Jul/2000 09:59:59,79.7,26.5
HW3,19/Jul/2000 10:59:59,79.7,26.5
HW3,19/Jul/2000 11:59:59,79.7,26.5
HW3,19/Jul/2000 12:59:59,80.6,27.0
HW3,19/Jul/2000 13:59:59,80.6,27.0
HW3,19/Jul/2000 14:59:59,81.5,27.5
HW3,19/Jul/2000 15:59:59,81.5,27.5
HW3,19/Jul/2000 16:59:59,80.6,27.0
HW3,19/Jul/2000 17:59:59,79.7,26.5
HW3,19/Jul/2000 18:59:59,79.7,26.5
HW3,19/Jul/2000 19:59:59,80.6,27.0
HW3,19/Jul/2000 20:59:59,80.6,27.0
HW3,19/Jul/2000 21:59:59,80.6,27.0
HW3,19/Jul/2000 22:59:59,81.5,27.5
HW3,19/Jul/2000 23:59:59,81.5,27.5
HW3,20/Jul/2000 00:59:59,80.6,27.0
HW3,20/Jul/2000 01:59:59,80.6,27.0
HW3,20/Jul/2000 02:59:59,79.7,26.5
HW3,20/Jul/2000 03:59:59,78.8,26.0
HW3,20/Jul/2000 04:59:59,78.8,26.0
HW3,20/Jul/2000 05:59:59,79.7,26.5
HW3,20/Jul/2000 06:59:59,78.8,26.0
HW3,20/Jul/2000 07:59:59,78.8,26.0
HW3,20/Jul/2000 08:59:59,79.7,26.5
HW3,20/Jul/2000 09:59:59,80.6,27.0
HW3,20/Jul/2000 10:59:59,80.6,27.0
HW3,20/Jul/2000 11:59:59,80.6,27.0
HW3,20/Jul/2000 12:59:59,80.6,27.0
HW3,20/Jul/2000 13:59:59,80.6,27.0
HW3,20/Jul/2000 14:59:59,80.6,27.0
HW3,20/Jul/2000 15:59:59,82.4,28.0
HW3,20/Jul/2000 16:59:59,83.3,28.5
HW3,20/Jul/2000 17:59:59,83.3,28.5
HW3,20/Jul/2000 18:59:59,83.3,28.5
HW3,20/Jul/2000 19:59:59,83.3,28.5
HW3,20/Jul/2000 20:59:59,83.3,28.5
HW3,20/Jul/2000 21:59:59,82.4,28.0
HW3,20/Jul/2000 22:59:59,83.3,28.5
HW3,20/Jul/2000 23:59:59,83.3,28.5
HW3,21/Jul/2000 00:59:59,82.4,28.0
HW3,21/Jul/2000 01:59:59,82.4,28.0
HW3,21/Jul/2000 02:59:59,80.6,27.0
HW3,21/Jul/2000 03:59:59,80.6,27.0
HW3,21/Jul/2000 04:59:59,81.5,27.5
HW3,21/Jul/2000 05:59:59,78.8,26.0
HW3,21/Jul/2000 06:59:59,79.7,26.5
HW3,21/Jul/2000 07:59:59,79.7,26.5
HW3,21/Jul/2000 08:59:59,80.6,27.0
HW3,21/Jul/2000 09:59:59,80.6,27.0
HW3,21/Jul/2000 10:59:59,82.4,28.0
HW3,21/Jul/2000 11:59:59,83.3,28.5
HW3,21/Jul/2000 12:59:59,83.3,28.5
HW3,21/Jul/2000 13:59:59,84.2,29.0
HW3,21/Jul/2000 14:59:59,83.3,28.5
HW3,21/Jul/2000 15:59:59,83.3,28.5
HW3,21/Jul/2000 16:59:59,84.2,29.0
HW3,21/Jul/2000 17:59:59,84.2,29.0
HW3,21/Jul/2000 18:59:59,85.1,29.5
HW3,21/Jul/2000 19:59:59,85.1,29.5
HW3,21/Jul/2000 20:59:59,85.1,29.5
HW3,21/Jul/2000 21:59:59,85.1,29.5
HW3,21/Jul/2000 22:59:59,85.1,29.5
HW3,21/Jul/2000 23:59:59,85.1,29.5
HW3,22/Jul/2000 00:59:59,85.1,29.5
HW3,22/Jul/2000 01:59:59,84.2,29.0
HW3,22/Jul/2000 02:59:59,84.2,29.0
HW3,22/Jul/2000 03:59:59,85.1,29.5
HW3,22/Jul/2000 04:59:59,85.1,29.5
HW3,22/Jul/2000 05:59:59,85.1,29.5
HW3,22/Jul/2000 06:59:59,85.1,29.5
HW3,22/Jul/2000 07:59:59,85.1,29.5
HW3,22/Jul/2000 08:59:59,85.1,29.5
HW3,22/Jul/2000 09:59:59,85.1,29.5
HW3,22/Jul/2000 10:59:59,85.1,29.5
HW3,22/Jul/2000 11:59:59,84.2,29.0
HW3,22/Jul/2000 12:59:59,85.1,29.5
HW3,22/Jul/2000 13:59:59,85.1,29.5
HW3,22/Jul/2000 14:59:59,85.1,29.5
HW3,22/Jul/2000 15:59:59,85.1,29.5
HW3,22/Jul/2000 16:59:59,84.2,29.0
HW3,22/Jul/2000 17:59:59,84.2,29.0
HW3,22/Jul/2000 18:59:59,84.2,29.0
HW3,22/Jul/2000 19:59:59,84.2,29.0
HW3,22/Jul/2000 20:59:59,84.2,29.0
HW3,22/Jul/2000 21:59:59,85.1,29.5
HW3,22/Jul/2000 22:59:59,85.1,29.5
HW3,22/Jul/2000 23:59:59,84.2,29.0
HW3,23/Jul/2000 00:59:59,85.1,29.5
HW3,23/Jul/2000 01:59:59,85.1,29.5
HW3,23/Jul/2000 02:59:59,85.1,29.5
HW3,23/Jul/2000 03:59:59,85.1,29.5
HW3,23/Jul/2000 04:59:59,85.1,29.5
HW3,23/Jul/2000 05:59:59,85.1,29.5
HW3,23/Jul/2000 06:59:59,84.2,29.0
HW3,23/Jul/2000 07:59:59,85.1,29.5
HW3,23/Jul/2000 08:59:59,84.2,29.0
HW3,23/Jul/2000 09:59:59,84.2,29.0
HW3,23/Jul/2000 10:59:59,84.2,29.0
HW3,23/Jul/2000 11:59:59,84.2,29.0
HW3,23/Jul/2000 12:59:59,85.1,29.5
HW3,23/Jul/2000 13:59:59,85.1,29.5
HW3,23/Jul/2000 14:59:59,85.1,29.5
HW3,23/Jul/2000 15:59:59,84.2,29.0
HW3,23/Jul/2000 16:59:59,84.2,29.0
HW3,23/Jul/2000 17:59:59,85.1,29.5
HW3,23/Jul/2000 18:59:59,84.2,29.0
HW3,23/Jul/2000 19:59:59,83.3,28.5
HW3,23/Jul/2000 20:59:59,84.2,29.0
HW3,23/Jul/2000 21:59:59,84.2,29.0
HW3,23/Jul/2000 22:59:59,83.3,28.5
HW3,23/Jul/2000 23:59:59,83.3,28.5
HW3,24/Jul/2000 00:59:59,84.2,29.0
HW3,24/Jul/2000 01:59:59,84.2,29.0
HW3,24/Jul/2000 02:59:59,84.2,29.0
HW3,24/Jul/2000 03:59:59,85.1,29.5
HW3,24/Jul/2000 04:59:59,83.3,28.5
HW3,24/Jul/2000 05:59:59,84.2,29.0
HW3,24/Jul/2000 06:59:59,84.2,29.0
HW3,24/Jul/2000 07:59:59,84.2,29.0
HW3,24/Jul/2000 08:59:59,85.1,29.5
HW3,24/Jul/2000 09:59:59,85.1,29.5
HW3,24/Jul/2000 10:59:59,85.1,29.5
HW3,24/Jul/2000 11:59:59,86.0,30.0
HW3,24/Jul/2000 12:59:59,86.0,30.0
HW3,24/Jul/2000 13:59:59,85.1,29.5
HW3,24/Jul/2000 14:59:59,85.1,29.5
HW3,24/Jul/2000 15:59:59,85.1,29.5
HW3,24/Jul/2000 16:59:59,84.2,29.0
HW3,24/Jul/2000 17:59:59,84.2,29.0
HW3,24/Jul/2000 18:59:59,84.2,29.0
HW3,24/Jul/2000 19:59:59,84.2,29.0
HW3,24/Jul/2000 20:59:59,84.2,29.0
HW3,24/Jul/2000 21:59:59,84.2,29.0
HW3,24/Jul/2000 22:59:59,84.2,29.0
HW3,24/Jul/2000 23:59:59,84.2,29.0
HW3,25/Jul/2000 00:59:59,84.2,29.0
HW3,25/Jul/2000 01:59:59,84.2,29.0
HW3,25/Jul/2000 02:59:59,84.2,29.0
HW3,25/Jul/2000 03:59:59,84.2,29.0
HW3,25/Jul/2000 04:59:59,85.1,29.5
HW3,25/Jul/2000 05:59:59,85.1,29.5
HW3,25/Jul/2000 06:59:59,85.1,29.5
HW3,25/Jul/2000 07:59:59,85.1,29.5
HW3,25/Jul/2000 08:59:59,85.1,29.5
HW3,25/Jul/2000 09:59:59,85.1,29.5
HW3,25/Jul/2000 10:59:59,86.0,30.0
HW3,25/Jul/2000 11:59:59,86.0,30.0
HW3,25/Jul/2000 12:59:59,86.0,30.0
HW3,25/Jul/2000 13:59:59,86.0,30.0
HW3,25/Jul/2000 14:59:59,86.0,30.0
HW3,25/Jul/2000 15:59:59,86.0,30.0
HW3,25/Jul/2000 16:59:59,86.0,30.0
HW3,25/Jul/2000 17:59:59,86.0,30.0
HW3,25/Jul/2000 18:59:59,86.0,30.0
HW3,25/Jul/2000 19:59:59,86.0,30.0
HW3,25/Jul/2000 20:59:59,86.0,30.0
HW3,25/Jul/2000 21:59:59,86.0,30.0
HW3,25/Jul/2000 22:59:59,86.0,30.0
HW3,25/Jul/2000 23:59:59,86.0,30.0
HW3,26/Jul/2000 00:59:59,86.0,30.0
HW3,26/Jul/2000 01:59:59,86.0,30.0
HW3,26/Jul/2000 02:59:59,86.0,30.0
HW3,26/Jul/2000 03:59:59,86.0,30.0
HW3,26/Jul/2000 04:59:59,86.0,30.0
HW3,26/Jul/2000 05:59:59,86.0,30.0
HW3,26/Jul/2000 06:59:59,86.0,30.0
HW3,26/Jul/2000 07:59:59,86.0,30.0
HW3,26/Jul/2000 08:59:59,86.0,30.0
HW3,26/Jul/2000 09:59:59,85.1,29.5
HW3,26/Jul/2000 10:59:59,84.2,29.0
HW3,26/Jul/2000 11:59:59,85.1,29.5
HW3,26/Jul/2000 12:59:59,85.1,29.5
HW3,26/Jul/2000 13:59:59,85.1,29.5
HW3,26/Jul/2000 14:59:59,85.1,29.5
HW3,26/Jul/2000 15:59:59,85.1,29.5
HW3,26/Jul/2000 16:59:59,85.1,29.5
HW3,26/Jul/2000 17:59:59,85.1,29.5
HW3,26/Jul/2000 18:59:59,83.3,28.5
HW3,26/Jul/2000 19:59:59,84.2,29.0
HW3,26/Jul/2000 20:59:59,84.2,29.0
HW3,26/Jul/2000 21:59:59,84.2,29.0
HW3,26/Jul/2000 22:59:59,85.1,29.5
HW3,26/Jul/2000 23:59:59,84.2,29.0
HW3,27/Jul/2000 00:59:59,85.1,29.5
HW3,27/Jul/2000 01:59:59,85.1,29.5
HW3,27/Jul/2000 02:59:59,85.1,29.5
HW3,27/Jul/2000 03:59:59,85.1,29.5
HW3,27/Jul/2000 04:59:59,84.2,29.0
HW3,27/Jul/2000 05:59:59,84.2,29.0
HW3,27/Jul/2000 06:59:59,83.3,28.5
HW3,27/Jul/2000 07:59:59,83.3,28.5
HW3,27/Jul/2000 08:59:59,83.3,28.5
HW3,27/Jul/2000 09:59:59,83.3,28.5
HW3,27/Jul/2000 10:59:59,83.3,28.5
HW3,27/Jul/2000 11:59:59,83.3,28.5
HW3,27/Jul/2000 12:59:59,83.3,28.5
HW3,27/Jul/2000 13:59:59,84.2,29.0
HW3,27/Jul/2000 14:59:59,82.4,28.0
HW3,27/Jul/2000 15:59:59,82.4,28.0
HW3,27/Jul/2000 16:59:59,82.4,28.0
HW3,27/Jul/2000 17:59:59,82.4,28.0
HW3,27/Jul/2000 18:59:59,82.4,28.0
HW3,27/Jul/2000 19:59:59,82.4,28.0
HW3,27/Jul/2000 20:59:59,82.4,28.0
HW3,27/Jul/2000 21:59:59,82.4,28.0
HW3,27/Jul/2000 22:59:59,82.4,28.0
HW3,27/Jul/2000 23:59:59,82.4,28.0
HW3,28/Jul/2000 00:59:59,81.5,27.5
HW3,28/Jul/2000 01:59:59,82.4,28.0
HW3,28/Jul/2000 02:59:59,83.3,28.5
HW3,28/Jul/2000 03:59:59,83.3,28.5
HW3,28/Jul/2000 04:59:59,83.3,28.5
HW3,28/Jul/2000 05:59:59,82.4,28.0
HW3,28/Jul/2000 06:59:59,82.4,28.0
HW3,28/Jul/2000 07:59:59,82.4,28.0
HW3,28/Jul/2000 08:59:59,82.4,28.0
HW3,28/Jul/2000 09:59:59,82.4,28.0
HW3,28/Jul/2000 10:59:59,83.3,28.5
HW3,28/Jul/2000 11:59:59,83.3,28.5
HW3,28/Jul/2000 12:59:59,83.3,28.5
HW3,28/Jul/2000 13:59:59,84.2,29.0
HW3,28/Jul/2000 14:59:59,84.2,29.0
HW3,28/Jul/2000 15:59:59,84.2,29.0
HW3,28/Jul/2000 16:59:59,84.2,29.0
HW3,28/Jul/2000 17:59:59,85.1,29.5
HW3,28/Jul/2000 18:59:59,85.1,29.5
HW3,28/Jul/2000 19:59:59,84.2,29.0
HW3,28/Jul/2000 20:59:59,83.3,28.5
HW3,28/Jul/2000 21:59:59,84.2,29.0
HW3,28/Jul/2000 22:59:59,83.3,28.5
HW3,28/Jul/2000 23:59:59,83.3,28.5
HW3,29/Jul/2000 00:59:59,83.3,28.5
HW3,29/Jul/2000 01:59:59,83.3,28.5
HW3,29/Jul/2000 02:59:59,83.3,28.5
HW3,29/Jul/2000 03:59:59,83.3,28.5
HW3,29/Jul/2000 04:59:59,83.3,28.5
HW3,29/Jul/2000 05:59:59,84.2,29.0
HW3,29/Jul/2000 06:59:59,84.2,29.0
HW3,29/Jul/2000 07:59:59,84.2,29.0
HW3,29/Jul/2000 08:59:59,84.2,29.0
HW3,29/Jul/2000 09:59:59,84.2,29.0
HW3,29/Jul/2000 10:59:59,84.2,29.0
HW3,29/Jul/2000 11:59:59,84.2,29.0
HW3,29/Jul/2000 12:59:59,84.2,29.0
HW3,29/Jul/2000 13:59:59,84.2,29.0
HW3,29/Jul/2000 14:59:59,84.2,29.0
HW3,29/Jul/2000 15:59:59,84.2,29.0
HW3,29/Jul/2000 16:59:59,84.2,29.0
HW3,29/Jul/2000 17:59:59,84.2,29.0
HW3,29/Jul/2000 18:59:59,84.2,29.0
HW3,29/Jul/2000 19:59:59,84.2,29.0
HW3,29/Jul/2000 20:59:59,84.2,29.0
HW3,29/Jul/2000 21:59:59,84.2,29.0
HW3,29/Jul/2000 22:59:59,85.1,29.5
HW3,29/Jul/2000 23:59:59,85.1,29.5
HW3,30/Jul/2000 00:59:59,84.2,29.0
HW3,30/Jul/2000 01:59:59,83.3,28.5
HW3,30/Jul/2000 02:59:59,82.4,28.0
HW3,30/Jul/2000 03:59:59,81.5,27.5
HW3,30/Jul/2000 04:59:59,81.5,27.5
HW3,30/Jul/2000 05:59:59,81.5,27.5
HW3,30/Jul/2000 06:59:59,80.6,27.0
HW3,30/Jul/2000 07:59:59,80.6,27.0
HW3,30/Jul/2000 08:59:59,80.6,27.0
HW3,30/Jul/2000 09:59:59,81.5,27.5
HW3,30/Jul/2000 10:59:59,81.5,27.5
HW3,30/Jul/2000 11:59:59,81.5,27.5
HW3,30/Jul/2000 12:59:59,81.5,27.5
HW3,30/Jul/2000 13:59:59,81.5,27.5
HW3,30/Jul/2000 14:59:59,82.4,28.0
HW3,30/Jul/2000 15:59:59,83.3,28.5
HW3,30/Jul/2000 16:59:59,82.4,28.0
HW3,30/Jul/2000 17:59:59,82.4,28.0
HW3,30/Jul/2000 18:59:59,81.5,27.5
HW3,30/Jul/2000 19:59:59,81.5,27.5
HW3,30/Jul/2000 20:59:59,81.5,27.5
HW3,30/Jul/2000 21:59:59,81.5,27.5
HW3,30/Jul/2000 22:59:59,81.5,27.5
HW3,30/Jul/2000 23:59:59,81.5,27.5
HW3,31/Jul/2000 00:59:59,81.5,27.5
HW3,31/Jul/2000 01:59:59,81.5,27.5
HW3,31/Jul/2000 02:59:59,81.5,27.5
HW3,31/Jul/2000 03:59:59,81.5,27.5
HW3,31/Jul/2000 04:59:59,81.5,27.5
HW3,31/Jul/2000 05:59:59,81.5,27.5
HW3,31/Jul/2000 06:59:59,81.5,27.5
HW3,31/Jul/2000 07:59:59,82.4,28.0
HW3,31/Jul/2000 08:59:59,82.4,28.0
HW3,31/Jul/2000 09:59:59,82.4,28.0
HW3,31/Jul/2000 10:59:59,80.6,27.0
HW3,31/Jul/2000 11:59:59,80.6,27.0
HW3,31/Jul/2000 12:59:59,81.5,27.5
HW3,31/Jul/2000 13:59:59,81.5,27.5
HW3,31/Jul/2000 14:59:59,81.5,27.5
HW3,31/Jul/2000 15:59:59,81.5,27.5
HW3,31/Jul/2000 16:59:59,82.4,28.0
HW3,31/Jul/2000 17:59:59,82.4,28.0
HW3,31/Jul/2000 18:59:59,83.3,28.5
HW3,31/Jul/2000 19:59:59,83.3,28.5
HW3,31/Jul/2000 20:59:59,83.3,28.5
HW3,31/Jul/2000 21:59:59,83.3,28.5
HW3,31/Jul/2000 22:59:59,81.5,27.5
HW3,31/Jul/2000 23:59:59,80.6,27.0
HW3,01/Aug/2000 00:59:59,80.6,27.0
HW3,01/Aug/2000 01:59:59,81.5,27.5
HW3,01/Aug/2000 02:59:59,82.4,28.0
HW3,01/Aug/2000 03:59:59,82.4,28.0
HW3,01/Aug/2000 04:59:59,83.3,28.5
HW3,01/Aug/2000 05:59:59,83.3,28.5
HW3,01/Aug/2000 06:59:59,82.4,28.0
HW3,01/Aug/2000 07:59:59,81.5,27.5
HW3,01/Aug/2000 08:59:59,80.6,27.0
HW3,01/Aug/2000 09:59:59,80.6,27.0
HW3,01/Aug/2000 10:59:59,81.5,27.5
HW3,01/Aug/2000 11:59:59,81.5,27.5
HW3,01/Aug/2000 12:59:59,80.6,27.0
HW3,01/Aug/2000 13:59:59,80.6,27.0
HW3,01/Aug/2000 14:59:59,81.5,27.5
HW3,01/Aug/2000 15:59:59,81.5,27.5
HW3,01/Aug/2000 16:59:59,81.5,27.5
HW3,01/Aug/2000 17:59:59,82.4,28.0
HW3,01/Aug/2000 18:59:59,82.4,28.0
HW3,01/Aug/2000 19:59:59,82.4,28.0
HW3,01/Aug/2000 20:59:59,82.4,28.0
HW3,01/Aug/2000 21:59:59,81.5,27.5
HW3,01/Aug/2000 22:59:59,81.5,27.5
HW3,01/Aug/2000 23:59:59,82.4,28.0
HW3,02/Aug/2000 00:59:59,82.4,28.0
HW3,02/Aug/2000 01:59:59,83.3,28.5
HW3,02/Aug/2000 02:59:59,81.5,27.5
HW3,02/Aug/2000 03:59:59,81.5,27.5
HW3,02/Aug/2000 04:59:59,81.5,27.5
HW3,02/Aug/2000 05:59:59,80.6,27.0
HW3,02/Aug/2000 06:59:59,81.5,27.5
HW3,02/Aug/2000 07:59:59,81.5,27.5
HW3,02/Aug/2000 08:59:59,81.5,27.5
HW3,02/Aug/2000 09:59:59,81.5,27.5
HW3,02/Aug/2000 10:59:59,81.5,27.5
HW3,02/Aug/2000 11:59:59,82.4,28.0
HW3,02/Aug/2000 12:59:59,79.7,26.5
HW3,02/Aug/2000 13:59:59,78.8,26.0
HW3,02/Aug/2000 14:59:59,78.8,26.0
HW3,02/Aug/2000 15:59:59,79.7,26.5
HW3,02/Aug/2000 16:59:59,79.7,26.5
HW3,02/Aug/2000 17:59:59,79.7,26.5
HW3,02/Aug/2000 18:59:59,79.7,26.5
HW3,02/Aug/2000 19:59:59,80.6,27.0
HW3,02/Aug/2000 20:59:59,83.3,28.5
HW3,02/Aug/2000 21:59:59,83.3,28.5
HW3,02/Aug/2000 22:59:59,81.5,27.5
HW3,02/Aug/2000 23:59:59,81.5,27.5
HW3,03/Aug/2000 00:59:59,81.5,27.5
HW3,03/Aug/2000 01:59:59,81.5,27.5
HW3,03/Aug/2000 02:59:59,81.5,27.5
HW3,03/Aug/2000 03:59:59,79.7,26.5
HW3,03/Aug/2000 04:59:59,80.6,27.0
HW3,03/Aug/2000 05:59:59,79.7,26.5
HW3,03/Aug/2000 06:59:59,79.7,26.5
HW3,03/Aug/2000 07:59:59,79.7,26.5
HW3,03/Aug/2000 08:59:59,80.6,27.0
HW3,03/Aug/2000 09:59:59,79.7,26.5
HW3,03/Aug/2000 10:59:59,80.6,27.0
HW3,03/Aug/2000 11:59:59,80.6,27.0
HW3,03/Aug/2000 12:59:59,78.8,26.0
HW3,03/Aug/2000 13:59:59,77.9,25.5
HW3,03/Aug/2000 14:59:59,78.8,26.0
HW3,03/Aug/2000 15:59:59,78.8,26.0
HW3,03/Aug/2000 16:59:59,78.8,26.0
HW3,03/Aug/2000 17:59:59,78.8,26.0
HW3,03/Aug/2000 18:59:59,79.7,26.5
HW3,03/Aug/2000 19:59:59,80.6,27.0
HW3,03/Aug/2000 20:59:59,81.5,27.5
HW3,03/Aug/2000 21:59:59,81.5,27.5
HW3,03/Aug/2000 22:59:59,78.8,26.0
HW3,03/Aug/2000 23:59:59,80.6,27.0
HW3,04/Aug/2000 00:59:59,80.6,27.0
HW3,04/Aug/2000 01:59:59,80.6,27.0
HW3,04/Aug/2000 02:59:59,80.6,27.0
HW3,04/Aug/2000 03:59:59,81.5,27.5
HW3,04/Aug/2000 04:59:59,82.4,28.0
HW3,04/Aug/2000 05:59:59,81.5,27.5
HW3,04/Aug/2000 06:59:59,82.4,28.0
HW3,04/Aug/2000 07:59:59,82.4,28.0
HW3,04/Aug/2000 08:59:59,82.4,28.0
HW3,04/Aug/2000 09:59:59,81.5,27.5
HW3,04/Aug/2000 10:59:59,83.3,28.5
HW3,04/Aug/2000 11:59:59,81.5,27.5
HW3,04/Aug/2000 12:59:59,81.5,27.5
HW3,04/Aug/2000 13:59:59,82.4,28.0
HW3,04/Aug/2000 14:59:59,85.1,29.5
HW3,04/Aug/2000 15:59:59,83.3,28.5
HW3,04/Aug/2000 16:59:59,81.5,27.5
HW3,04/Aug/2000 17:59:59,82.4,28.0
HW3,04/Aug/2000 18:59:59,85.1,29.5
HW3,04/Aug/2000 19:59:59,83.3,28.5
HW3,04/Aug/2000 20:59:59,82.4,28.0
HW3,04/Aug/2000 21:59:59,83.3,28.5
HW3,04/Aug/2000 22:59:59,82.4,28.0
HW3,04/Aug/2000 23:59:59,84.2,29.0
HW3,05/Aug/2000 00:59:59,83.3,28.5
HW3,05/Aug/2000 01:59:59,84.2,29.0
HW3,05/Aug/2000 02:59:59,82.4,28.0
HW3,05/Aug/2000 03:59:59,82.4,28.0
HW3,05/Aug/2000 04:59:59,84.2,29.0
HW3,05/Aug/2000 05:59:59,83.3,28.5
HW3,05/Aug/2000 06:59:59,83.3,28.5
HW3,05/Aug/2000 07:59:59,85.1,29.5
HW3,05/Aug/2000 08:59:59,85.1,29.5
HW3,05/Aug/2000 09:59:59,81.5,27.5
HW3,05/Aug/2000 10:59:59,81.5,27.5
HW3,05/Aug/2000 11:59:59,83.3,28.5
HW3,05/Aug/2000 12:59:59,84.2,29.0
HW3,05/Aug/2000 13:59:59,82.4,28.0
HW3,05/Aug/2000 14:59:59,82.4,28.0
HW3,05/Aug/2000 15:59:59,81.5,27.5
HW3,05/Aug/2000 16:59:59,80.6,27.0
HW3,05/Aug/2000 17:59:59,82.4,28.0
HW3,05/Aug/2000 18:59:59,82.4,28.0
HW3,05/Aug/2000 19:59:59,84.2,29.0
HW3,05/Aug/2000 20:59:59,82.4,28.0
HW3,05/Aug/2000 21:59:59,83.3,28.5
HW3,05/Aug/2000 22:59:59,85.1,29.5
HW3,05/Aug/2000 23:59:59,82.4,28.0
HW3,06/Aug/2000 00:59:59,83.3,28.5
HW3,06/Aug/2000 01:59:59,84.2,29.0
HW3,06/Aug/2000 02:59:59,84.2,29.0
HW3,06/Aug/2000 03:59:59,84.2,29.0
HW3,06/Aug/2000 04:59:59,84.2,29.0
HW3,06/Aug/2000 05:59:59,85.1,29.5
HW3,06/Aug/2000 06:59:59,84.2,29.0
HW3,06/Aug/2000 07:59:59,83.3,28.5
HW3,06/Aug/2000 08:59:59,83.3,28.5
HW3,06/Aug/2000 09:59:59,84.2,29.0
HW3,06/Aug/2000 10:59:59,84.2,29.0
HW3,06/Aug/2000 11:59:59,84.2,29.0
HW3,06/Aug/2000 12:59:59,84.2,29.0
HW3,06/Aug/2000 13:59:59,85.1,29.5
HW3,06/Aug/2000 14:59:59,84.2,29.0
HW3,06/Aug/2000 15:59:59,85.1,29.5
HW3,06/Aug/2000 16:59:59,85.1,29.5
HW3,06/Aug/2000 17:59:59,84.2,29.0
HW3,06/Aug/2000 18:59:59,84.2,29.0
HW3,06/Aug/2000 19:59:59,84.2,29.0
HW3,06/Aug/2000 20:59:59,85.1,29.5
HW3,06/Aug/2000 21:59:59,84.2,29.0
HW3,06/Aug/2000 22:59:59,84.2,29.0
HW3,06/Aug/2000 23:59:59,83.3,28.5
HW3,07/Aug/2000 00:59:59,84.2,29.0
HW3,07/Aug/2000 01:59:59,84.2,29.0
HW3,07/Aug/2000 02:59:59,85.1,29.5
HW3,07/Aug/2000 03:59:59,85.1,29.5
HW3,07/Aug/2000 04:59:59,84.2,29.0
HW3,07/Aug/2000 05:59:59,84.2,29.0
HW3,07/Aug/2000 06:59:59,84.2,29.0
HW3,07/Aug/2000 07:59:59,84.2,29.0
HW3,07/Aug/2000 08:59:59,84.2,29.0
HW3,07/Aug/2000 09:59:59,82.4,28.0
HW3,07/Aug/2000 10:59:59,83.3,28.5
HW3,07/Aug/2000 11:59:59,84.2,29.0
HW3,07/Aug/2000 12:59:59,84.2,29.0
HW3,07/Aug/2000 13:59:59,84.2,29.0
HW3,07/Aug/2000 14:59:59,84.2,29.0
HW3,07/Aug/2000 15:59:59,84.2,29.0
HW3,07/Aug/2000 16:59:59,84.2,29.0
HW3,07/Aug/2000 17:59:59,84.2,29.0
HW3,07/Aug/2000 18:59:59,84.2,29.0
HW3,07/Aug/2000 19:59:59,84.2,29.0
HW3,07/Aug/2000 20:59:59,84.2,29.0
HW3,07/Aug/2000 21:59:59,84.2,29.0
HW3,07/Aug/2000 22:59:59,83.3,28.5
HW3,07/Aug/2000 23:59:59,83.3,28.5
HW3,08/Aug/2000 00:59:59,82.4,28.0
HW3,08/Aug/2000 01:59:59,83.3,28.5
HW3,08/Aug/2000 02:59:59,84.2,29.0
HW3,08/Aug/2000 03:59:59,84.2,29.0
HW3,08/Aug/2000 04:59:59,85.1,29.5
HW3,08/Aug/2000 05:59:59,85.1,29.5
HW3,08/Aug/2000 06:59:59,85.1,29.5
HW3,08/Aug/2000 07:59:59,85.1,29.5
HW3,08/Aug/2000 08:59:59,85.1,29.5
HW3,08/Aug/2000 09:59:59,85.1,29.5
HW3,08/Aug/2000 10:59:59,85.1,29.5
HW3,08/Aug/2000 11:59:59,85.1,29.5
HW3,08/Aug/2000 12:59:59,85.1,29.5
HW3,08/Aug/2000 13:59:59,85.1,29.5
HW3,08/Aug/2000 14:59:59,85.1,29.5
HW3,08/Aug/2000 15:59:59,85.1,29.5
HW3,08/Aug/2000 16:59:59,85.1,29.5
HW3,08/Aug/2000 17:59:59,85.1,29.5
HW3,08/Aug/2000 18:59:59,85.1,29.5
HW3,08/Aug/2000 19:59:59,85.1,29.5
HW3,08/Aug/2000 20:59:59,85.1,29.5
HW3,08/Aug/2000 21:59:59,85.1,29.5
HW3,08/Aug/2000 22:59:59,85.1,29.5
HW3,08/Aug/2000 23:59:59,85.1,29.5
HW3,09/Aug/2000 00:59:59,85.1,29.5
HW3,09/Aug/2000 01:59:59,85.1,29.5
HW3,09/Aug/2000 02:59:59,85.1,29.5
HW3,09/Aug/2000 03:59:59,85.1,29.5
HW3,09/Aug/2000 04:59:59,85.1,29.5
HW3,09/Aug/2000 05:59:59,85.1,29.5
HW3,09/Aug/2000 06:59:59,85.1,29.5
HW3,09/Aug/2000 07:59:59,85.1,29.5
HW3,09/Aug/2000 08:59:59,84.2,29.0
HW3,09/Aug/2000 09:59:59,85.1,29.5
HW3,09/Aug/2000 10:59:59,85.1,29.5
HW3,09/Aug/2000 11:59:59,84.2,29.0
HW3,09/Aug/2000 12:59:59,84.2,29.0
HW3,09/Aug/2000 13:59:59,85.1,29.5
HW3,09/Aug/2000 14:59:59,85.1,29.5
HW3,09/Aug/2000 15:59:59,85.1,29.5
HW3,09/Aug/2000 16:59:59,85.1,29.5
HW3,09/Aug/2000 17:59:59,85.1,29.5
HW3,09/Aug/2000 18:59:59,85.1,29.5
HW3,09/Aug/2000 19:59:59,85.1,29.5
HW3,09/Aug/2000 20:59:59,85.1,29.5
HW3,09/Aug/2000 21:59:59,85.1,29.5
HW3,09/Aug/2000 22:59:59,85.1,29.5
HW3,09/Aug/2000 23:59:59,85.1,29.5
HW3,10/Aug/2000 00:59:59,85.1,29.5
HW3,10/Aug/2000 01:59:59,85.1,29.5
HW3,10/Aug/2000 02:59:59,85.1,29.5
HW3,10/Aug/2000 03:59:59,84.2,29.0
HW3,10/Aug/2000 04:59:59,84.2,29.0
HW3,10/Aug/2000 05:59:59,85.1,29.5
HW3,10/Aug/2000 06:59:59,85.1,29.5
HW3,10/Aug/2000 07:59:59,85.1,29.5
HW3,10/Aug/2000 08:59:59,85.1,29.5
HW3,10/Aug/2000 09:59:59,85.1,29.5
HW3,10/Aug/2000 10:59:59,85.1,29.5
HW3,10/Aug/2000 11:59:59,85.1,29.5